Voltar ao catálogo

THORAD AGENA D DEB

AtivoLEO
NORAD 42547·DEBRIS·🇺🇸 United States

Lançado Apr 8, 1970 de Vandenberg Space Force Base

Loading…

Próximas Passagens (próximas 24 horas)

TLE

EnvelhecendoSource: Space-Track

Época: Sep 12, 2026, 00:13 UTC

1 42547U 70025TD  26255.00902901  .00000795  00000-0  74657-3 0  9990
2 42547 100.1762 274.9950 0013017 234.0885 125.9059 13.85092621644618

Acompanhe THORAD AGENA D DEB em tempo real com AllMySat

Download on the App Store